Location: Milton Keynes
(52.0316°N, 0.7531°W)
Time: 01:47:13
(UTC+00:00)

GENESIS II - Pass Details

Date: 27 January 2019
Orbit: 487 x 543 km, 64.5° (Epoch: 16 February)

Event Time Altitude Azimuth Distance (km) Brightness Sun altitude
Rises 05:39:20 0° 166° (SSE) 2,612 8.0 -20.0°
Reaches altitude 10° 05:42:42 10° 134° (SE) 1,749 7.6 -19.5°
Maximum altitude 05:44:12 12° 111° (ESE) 1,637 7.8 -19.3°
Drops below altitude 10° 05:45:43 10° 89° (E) 1,768 8.1 -19.1°
Sets 05:49:09 0° 58° (ENE) 2,679 8.7 -18.5°
